Location: Le Quennec
(47.9776°N, 3.4069°W)
Time: 13:55:32
(UTC+00:00)

Daily predictions for brighter satellites

Satellite Brightness Start Highest point End
(mag) Time Altitude Azimuth Time Altitude Azimuth Time Altitude Azimuth
BREEZE-M DEB (TANK) 4.2 19:57:36 10° WNW 20:02:10 87° NNE 20:20:28 10° ESE
Cosmos 1417 Rocket 4.5 20:08:54 10° S 20:15:06 78° E 20:21:16 10° NNE
ERS-2 3.3 20:20:14 10° N 20:23:44 46° WNW 20:27:13 10° SW
Cosmos 1606 3.6 20:20:51 10° SSW 20:24:31 53° WNW 20:28:17 10° N
Cosmos 2278 Rocket 3.4 20:20:25 10° SSE 20:24:32 21° E 20:28:40 10° NE
BREEZE-M DEB (TANK) 1.7 20:22:13 10° W 20:25:00 59° N 20:26:59 10° ENE
Cosmos 1602 4.1 20:21:36 10° N 20:25:21 45° ENE 20:29:05 10° SSE
USA 305 3.7 20:22:11 10° WNW 20:26:19 47° NNE 20:30:27 10° E
Cosmos 1782 3.5 20:23:52 10° SSE 20:27:30 34° E 20:31:08 10° NNE
Landsat 7 4.2 20:23:42 10° SE 20:28:16 49° ENE 20:32:51 10° N
Cosmos 1844 Rocket 3.0 20:22:51 10° SSW 20:28:24 75° WNW 20:34:02 10° NNE
IGS 5A 3.8 20:25:09 10° SSE 20:29:09 51° ENE 20:33:12 10° N
Cosmos 1242 Rocket 2.6 20:26:27 10° S 20:29:57 57° E 20:33:27 10° NNE
Intercosmos 25 Rocket 4.4 20:24:34 10° NNW 20:30:49 63° W 20:34:46 10° S
BREEZE-M DEB (TANK) 4.2 20:21:31 10° WNW 20:32:26 55° SW 20:35:39 11° SE
Cosmos 1805 Rocket 4.0 20:28:39 10° NNW 20:32:58 63° W 20:37:16 10° S
ERS-1 Rocket 4.4 20:30:40 10° ESE 20:34:32 23° ENE 20:38:25 10° N
CZ-4C R/B 3.2 20:28:52 10° NW 20:35:51 65° NE 20:43:47 11° SE
SJ-6B 4.4 20:34:14 10° SSW 20:37:49 34° W 20:41:30 10° NNW
BREEZE M DEB (TANK) 4.2 20:34:13 10° WSW 20:38:08 87° NNW 20:51:46 10° ENE
Cosmos 1633 Rocket 3.2 20:34:49 10° N 20:39:10 58° ENE 20:43:31 10° SSE
ATLAS 5 CENTAUR R/B 2.7 20:39:48 10° NW 20:45:20 64° SW 20:51:46 10° SSE
USA 306 3.5 20:41:31 10° WNW 20:45:43 54° NNE 20:49:54 10° E
Cosmos 1328 Rocket 3.8 20:45:38 10° S 20:49:55 50° E 20:54:12 10° NNE
Cosmos 1812 3.8 20:47:18 13° SE 20:49:59 28° E 20:53:19 10° NNE
Cosmos 1503 Rocket 4.1 20:44:50 10° SSW 20:50:01 86° WNW 20:55:16 10° NNE
Cosmos 1777 Rocket 4.4 20:46:30 10° S 20:51:22 42° ESE 20:56:15 10° NE
Cosmos 1470 Rocket 4.0 20:47:06 10° N 20:51:26 46° ENE 20:55:01 14° SSE
ARIANE 5 R/B 3.3 20:52:22 15° SE 20:55:37 39° ENE 20:59:41 10° N
Ariane Rocket 4.1 20:53:10 10° S 20:57:58 43° W 21:02:49 10° NNW
Cosmos 1666 3.8 20:55:08 10° NNE 20:58:25 28° ENE 21:00:29 17° ESE
CRYOSAT 2 4.4 20:53:55 10° SSE 20:58:44 67° E 21:03:36 10° N
CARTOSAT-1 4.2 20:56:42 16° SE 20:59:48 40° ENE 21:03:51 10° N
Cosmos 1833 Rocket 2.8 20:57:01 10° NNW 21:02:40 65° ENE 21:07:04 17° SE
Meteor 1-5 Rocket 4.4 20:59:05 10° N 21:04:23 53° ENE 21:08:22 17° SSE
BREEZE-M R/B 1.6 21:02:18 10° WSW 21:04:50 84° NNW 21:07:24 10° ENE
Cosmos 1933 Rocket 4.1 21:01:33 10° N 21:05:41 42° ENE 21:08:25 19° SE
Cosmos 1437 2.3 21:05:01 14° S 21:07:18 68° E 21:10:09 10° NNE
Cosmos 1666 Rocket 4.0 21:03:14 10° NNW 21:07:35 60° W 21:11:51 10° S
Cosmos 1709 Rocket 4.1 21:03:34 10° NNW 21:09:40 75° W 21:15:45 10° S
USA 307 3.1 21:08:09 10° WNW 21:12:25 68° NNE 21:15:38 17° ESE
Cosmos 2184 Rocket 4.4 21:07:13 10° N 21:13:14 48° ENE 21:17:33 19° SE
CZ-2C R/B 3.6 21:10:49 10° NNE 21:15:20 81° ESE 21:19:53 10° SSW
Cosmos 2074 Rocket 4.3 21:11:37 10° N 21:17:48 54° ENE 21:22:14 19° SSE
NOSS 3-4 (A) 4.1 21:11:18 10° NW 21:18:06 64° NE 21:24:06 17° ESE
NOSS 3-4 (C) 4.1 21:11:24 10° NW 21:18:13 63° NE 21:24:13 17° ESE
USA 245 1.8 21:20:53 40° S 21:21:31 81° WSW 21:23:47 10° NNW
SJ 16-02 1.8 21:19:30 19° SSE 21:22:19 41° ESE 21:26:30 10° NE
USA 308 2.9 21:21:45 10° WNW 21:26:04 79° NNE 21:28:43 23° ESE
NOSS 3-3 (A) 4.0 21:21:55 10° SW 21:27:43 84° NW 21:34:26 10° NE
NOSS 3-3 (C) 4.0 21:22:02 10° SW 21:27:50 85° NW 21:34:33 10° NE
SPOT 1/Viking Rocket 3.7 21:23:33 15° S 21:27:53 73° WSW 21:33:06 10° NNW
Cosmos 1500 3.5 21:24:43 10° NNW 21:28:26 63° W 21:30:59 19° S
ATLAS 2AS CENTAUR R/B 3.4 21:24:15 10° NW 21:31:34 51° NE 21:37:04 16° ESE
Cosmos 2315 Rocket 4.5 21:28:38 10° SSW 21:34:57 64° WNW 21:41:20 10° N
Iridium 4 Rocket 3.9 21:30:59 19° SSE 21:35:09 66° E 21:41:02 10° N
Terra 2.2 21:33:01 24° SE 21:35:32 49° ENE 21:40:09 10° N
CREW DRAGON DEMO-1 DEB 2.3 21:32:53 10° WNW 21:35:32 78° SSW 21:35:56 59° SE
X-37B 2.5 21:34:42 10° WSW 21:36:56 17° SSW 21:36:59 17° SSW
USA 215 4.5 21:32:24 10° ENE 21:38:25 41° N 21:44:26 10° WNW
Cosmos 1151 Rocket 4.3 21:35:28 10° SW 21:39:35 41° WNW 21:43:46 10° N
SPOT 5 3.0 21:38:32 25° SSE 21:41:37 77° ENE 21:46:56 10° NNW
Cosmos 2082 Rocket 2.3 21:37:01 10° NNW 21:42:39 69° ENE 21:45:50 26° SE
Cosmos 158 Rocket 3.8 21:39:29 10° NNW 21:44:24 72° ENE 21:46:51 29° SE
Resurs 01 Rocket 3.5 21:40:45 10° SSW 21:44:27 25° W 21:48:09 10° NW
Cosmos 2084 4.1 21:40:50 10° WSW 21:44:55 56° NW 21:49:08 10° NE
Cosmos 2228 Rocket 3.4 21:45:34 31° SSE 21:47:20 49° E 21:51:39 10° NNE
Cosmos 44 4.4 21:43:27 10° NNW 21:48:38 42° NE 21:51:59 20° ESE
COSMOS 2406 3.5 21:43:35 10° NNW 21:49:10 60° WSW 21:52:38 23° S
Cosmos 1538 Rocket 4.4 21:50:49 10° NNW 21:56:06 60° WSW 21:59:07 25° S
Cosmos 1271 Rocket 2.7 21:54:20 30° S 21:56:14 85° E 22:00:16 10° NNE
Meteor 2-6 Rocket 4.3 21:54:18 13° SSW 21:59:14 73° WNW 22:04:48 10° N
BREEZE-M DEB (TANK) 4.1 21:50:21 10° W 21:59:54 56° NNW 22:02:51 10° ENE
Meteor 1-27 Rocket 3.9 21:58:45 28° SSE 22:01:51 61° E 22:07:41 10° NNE
CZ-4B DEB 4.1 22:04:46 63° SSE 22:05:13 89° E 22:08:27 10° NNW
Spot 2 Rocket 4.3 22:02:17 19° SSW 22:05:35 44° W 22:10:26 10° NNW
USA 305 3.1 22:02:12 10° WNW 22:06:23 57° SW 22:07:27 43° SSE
Cosmos 2278 Rocket 2.5 22:02:25 10° SW 22:08:03 69° WNW 22:13:44 10° NNE
Milstar 3 4.4 22:00:06 10° SW 22:09:17 23° S 22:10:46 23° S
Cosmos 1937 Rocket 4.4 22:09:31 29° ESE 22:10:08 29° E 22:14:34 10° NE
SL-24 R/B - RUBIN 2 4.4 22:05:13 10° NW 22:10:45 57° NE 22:13:07 30° ESE
Cosmos 1680 Rocket 3.6 22:07:22 10° NNW 22:12:42 70° ENE 22:14:52 36° SE
ERS-1 Rocket 3.4 22:10:19 27° S 22:12:58 57° W 22:17:56 10° NNW
Cosmos 1943 Rocket 3.0 22:13:55 29° ESE 22:14:36 30° ESE 22:19:24 10° NE
Cosmos 1869 Rocket 3.4 22:10:21 10° N 22:14:42 87° W 22:16:04 43° S
Centaur D AC-29 4.5 21:05:08 10° SW 22:15:13 29° SSW 22:20:13 24° SSE
Cosmos 2369 Rocket 3.8 22:17:10 17° E 22:17:10 17° E 22:20:33 10° ENE
Gbstr 26 Del rocket 4.3 22:10:39 10° WNW 22:18:18 73° NNE 22:23:48 15° E
Cosmos 1238 Rocket 4.3 22:17:10 10° N 22:23:11 46° ENE 22:25:13 33° ESE
CZ-4C R/B 3.8 22:17:37 10° NW 22:24:25 40° WSW 22:28:58 23° S
USA 306 3.4 22:21:35 10° WNW 22:25:38 43° SW 22:26:02 42° SSW
Meteor 1-11 Rocket 4.1 22:21:28 10° NNW 22:27:22 63° W 22:30:24 29° SSW
Okean 1 4.2 22:29:36 34° E 22:29:36 34° E 22:33:09 10° NNE
Cosmos 1340 Rocket 2.7 22:26:17 10° N 22:30:23 81° ENE 22:31:03 61° SSE
Cosmos 1818 4.0 22:26:19 10° NNW 22:31:45 57° NE 22:34:12 31° ESE
ARIANE 5 R/B 4.4 22:29:54 16° SW 22:32:13 23° W 22:35:43 10° NW
Cosmos 1707 Rocket 3.6 22:32:59 54° SE 22:33:43 64° E 22:38:06 10° NNE
DNEPR-1 R/B 4.5 22:34:45 41° SE 22:35:36 43° ESE 22:40:24 10° NE
SL-8 Rocket 4.2 22:32:51 10° N 22:39:07 59° ENE 22:41:32 37° SE
ALOS 2 4.0 22:41:06 24° E 22:42:09 27° ENE 22:45:50 10° N
Cosmos 1536 3.6 22:41:33 10° NNW 22:45:26 44° W 22:46:16 38° SW
Cosmos 1833 Rocket 4.4 22:41:50 10° NW 22:46:05 22° W 22:48:46 16° SW
Cosmos 1743 2.6 22:45:25 10° NNW 22:49:16 75° W 22:49:32 70° SW
Cosmos 1898 Rocket 3.4 22:47:28 41° SSW 22:49:24 84° ESE 22:54:46 10° NNE
USA 307 4.1 22:48:25 10° WNW 22:51:43 29° WSW 22:51:43 29° WSW
Cosmos 1975 3.2 22:56:32 10° N 23:00:25 49° ENE 23:00:28 49° E
SJ 16-02 3.5 22:57:23 10° WSW 23:01:03 25° WNW 23:04:44 10° N
RESURS DK-1 4.1 22:58:38 10° N 23:02:10 26° NE 23:03:31 22° E
Cosmos 990 Rocket 4.3 23:00:01 29° SW 23:02:40 64° WNW 23:07:55 10° NNE
Cosmos 1733 Rocket 2.9 23:00:08 10° NNW 23:04:28 79° W 23:04:54 69° SSW
Cosmos 864 Rocket 4.4 23:00:21 10° N 23:06:32 74° E 23:08:29 45° SSE
Cosmos 1461 3.6 23:07:22 45° E 23:07:22 45° E 23:11:19 10° NE
Cosmos 2297 3.6 23:04:38 37° SSW 23:07:00 87° WNW 23:12:44 10° NNE
Cosmos 372 Rocket 4.1 23:07:02 49° ESE 23:07:26 51° ESE 23:12:22 10° NNE
Cosmos 1959 Rocket 4.4 23:03:02 10° N 23:09:18 79° E 23:11:16 46° SSE
SeaSat 1 4.5 23:06:41 10° ENE 23:08:32 14° E 23:08:32 14° E
Cosmos 1900 4.3 23:09:19 44° SW 23:10:59 87° WNW 23:16:04 10° NE
Terra 3.6 23:11:54 19° WSW 23:13:33 22° W 23:17:17 10° NW
ERBS 3.2 23:13:24 10° NW 23:16:00 48° NNW 23:16:00 48° NNW
Meteor 1-18 Rocket 4.1 23:16:27 52° S 23:17:51 78° E 23:23:27 10° NNE
Cosmos 1908 Rocket 3.8 23:14:55 10° N 23:19:21 57° ENE 23:19:43 55° E
USA 215 3.7 23:14:25 10° E 23:20:49 60° NNE 23:27:14 10° NW
ATLAS 2AS CENTAUR R/B 3.1 23:15:35 10° NW 23:22:33 49° WSW 23:24:29 39° SSW
Cosmos 1867 4.3 23:25:56 36° ESE 23:25:56 36° ESE 23:30:38 10° NE
Cosmos 2082 Rocket 3.8 23:22:07 10° NW 23:26:10 21° W 23:27:41 19° WSW
Cosmos 44 4.0 23:24:52 10° NW 23:29:57 42° WSW 23:30:23 41° SW
Cosmos 2181 Rocket 4.0 23:29:26 42° SSW 23:31:36 74° W 23:37:45 10° N
Spot 4 4.0 23:34:25 53° SW 23:35:04 58° W 23:39:53 10° NNW
Cosmos 2084 Rocket 4.1 23:32:07 10° NW 23:35:44 45° WSW 23:35:44 45° WSW
ATLAS CENTAUR R/B 3.5 23:38:29 15° ENE 23:38:29 15° ENE 23:39:23 10° ENE
Cosmos 2366 rocket 4.1 23:32:40 10° NNW 23:38:47 65° W 23:40:37 45° SSW
Cosmos 1821 Rocket 4.2 23:33:02 10° N 23:39:24 63° ENE 23:41:25 43° SE
Cosmos 1862 Rocket 4.4 23:47:47 38° W 23:48:26 40° WNW 23:52:32 10° N
Cosmos 1703 Rocket 3.5 23:48:52 75° E 23:48:52 75° E 23:53:16 10° NNE
Okean 3 4.3 23:50:46 39° E 23:50:46 39° E 23:54:31 10° NNE
Cosmos 1782 Rocket 3.6 23:46:44 10° N 23:51:12 68° E 23:51:22 67° E
Cosmos 1937 Rocket 4.4 23:49:39 27° WSW 23:51:55 42° WNW 23:56:51 10° NNE
Lacrosse 5 4.1 23:54:51 12° E 23:54:51 12° E 23:55:45 10° E
